Precipitable_Water
1.05 1.05 1.05 1.05 1.07 1.07 1.07 1.09 1.11 1.11 1.13 1.11 1.11 1.11 1.11 1.11 1.09 1.09 1.09 1.09 1.09 1.05 1.03 1.01 0.99 0.97 0.97 0.95 0.93 0.91 0.91 0.93 0.95 0.97 0.95 0.89 0.87 0.87 0.85 0.87 0.91 0.93 0.95 0.93 0.91 0.89 0.87 0.85 0.85 0.85 0.85 0.83 0.79 0.74 0.70 0.68 0.66 0.66 0.66 0.66 0.64 0.64 0.64 0.62 0.62 0.62 0.62 0.62 0.62
1.03 1.03 1.03 1.05 1.07 1.07 1.07 1.09 1.09 1.13 1.15 1.15 1.13 1.13 1.11 1.11 1.11 1.11 1.11 1.09 1.09 1.09 1.05 1.01 0.99 0.99 0.97 0.95 0.93 0.91 0.91 0.93 0.97 0.97 0.95 0.87 0.87 0.87 0.87 0.89 0.93 0.95 0.95 0.93 0.91 0.89 0.87 0.87 0.87 0.87 0.85 0.81 0.77 0.74 0.70 0.68 0.68 0.66 0.66 0.66 0.64 0.64 0.62 0.62 0.62 0.62 0.62 0.62 0.62
0.99 1.01 1.03 1.05 1.05 1.05 1.05 1.05 1.05 1.09 1.13 1.15 1.15 1.15 1.15 1.13 1.13 1.11 1.11 1.11 1.11 1.09 1.07 1.01 1.01 0.99 0.97 0.97 0.95 0.93 0.91 0.93 0.95 0.95 0.93 0.87 0.87 0.87 0.89 0.91 0.93 0.95 0.97 0.95 0.91 0.91 0.89 0.89 0.87 0.87 0.85 0.81 0.77 0.74 0.72 0.68 0.68 0.68 0.66 0.66 0.64 0.64 0.62 0.62 0.62 0.62 0.62 0.62 0.62
0.97 0.99 1.01 1.03 1.03 1.01 1.01 1.01 1.01 1.05 1.11 1.13 1.15 1.15 1.15 1.15 1.15 1.13 1.11 1.11 1.11 1.09 1.07 1.01 1.01 0.99 0.99 0.97 0.95 0.91 0.91 0.93 0.93 0.93 0.91 0.89 0.87 0.87 0.91 0.93 0.93 0.95 0.97 0.95 0.93 0.91 0.89 0.89 0.89 0.87 0.85 0.79 0.76 0.74 0.72 0.70 0.68 0.68 0.66 0.66 0.64 0.64 0.62 0.62 0.62 0.62 0.62 0.62 0.60
0.95 0.97 0.99 1.01 1.01 1.01 1.01 1.01 1.01 1.05 1.09 1.11 1.13 1.13 1.13 1.15 1.15 1.15 1.13 1.13 1.11 1.07 1.05 1.01 0.99 0.99 0.97 0.93 0.91 0.89 0.89 0.91 0.91 0.91 0.89 0.87 0.87 0.89 0.91 0.93 0.95 0.97 0.99 0.97 0.93 0.91 0.89 0.89 0.89 0.87 0.83 0.79 0.76 0.74 0.72 0.70 0.70 0.68 0.66 0.66 0.64 0.64 0.62 0.62 0.62 0.62 0.62 0.62 0.60
0.93 0.95 0.99 1.03 1.03 1.03 1.05 1.05 1.03 1.05 1.09 1.11 1.13 1.13 1.13 1.13 1.15 1.15 1.15 1.13 1.11 1.07 1.03 0.99 0.99 0.95 0.93 0.91 0.89 0.87 0.87 0.89 0.91 0.91 0.89 0.85 0.87 0.89 0.91 0.93 0.97 0.99 1.01 0.99 0.93 0.91 0.91 0.91 0.89 0.87 0.83 0.77 0.74 0.72 0.72 0.70 0.70 0.68 0.66 0.64 0.64 0.64 0.62 0.62 0.62 0.62 0.62 0.60 0.60
0.89 0.93 0.97 1.03 1.05 1.05 1.05 1.05 1.05 1.07 1.09 1.09 1.11 1.11 1.13 1.15 1.15 1.15 1.15 1.13 1.11 1.07 1.03 0.97 0.95 0.91 0.91 0.89 0.87 0.85 0.85 0.89 0.91 0.89 0.87 0.85 0.85 0.89 0.93 0.97 0.99 1.01 1.01 0.97 0.93 0.91 0.91 0.89 0.87 0.85 0.81 0.76 0.74 0.72 0.72 0.70 0.70 0.70 0.68 0.64 0.64 0.62 0.62 0.62 0.62 0.62 0.60 0.60 0.60
0.87 0.91 0.95 1.03 1.05 1.05 1.07 1.05 1.05 1.05 1.05 1.05 1.07 1.11 1.15 1.17 1.15 1.13 1.13 1.11 1.09 1.05 1.01 0.97 0.93 0.91 0.89 0.89 0.87 0.85 0.85 0.89 0.91 0.89 0.85 0.85 0.85 0.89 0.95 0.99 1.01 0.99 0.97 0.95 0.93 0.91 0.89 0.87 0.85 0.83 0.79 0.77 0.74 0.72 0.72 0.74 0.72 0.72 0.68 0.64 0.62 0.62 0.62 0.62 0.62 0.62 0.62 0.60 0.60
0.85 0.89 0.93 1.01 1.03 1.05 1.05 1.05 1.05 1.03 1.03 1.03 1.03 1.07 1.13 1.17 1.15 1.13 1.11 1.09 1.07 1.03 1.01 0.97 0.93 0.91 0.89 0.89 0.87 0.87 0.87 0.91 0.89 0.87 0.85 0.85 0.87 0.91 0.97 0.99 0.99 0.97 0.95 0.95 0.95 0.91 0.87 0.85 0.81 0.79 0.77 0.77 0.76 0.74 0.76 0.76 0.74 0.72 0.68 0.66 0.64 0.62 0.62 0.62 0.62 0.62 0.60 0.60 0.58
0.83 0.87 0.91 0.97 0.99 1.01 1.01 1.03 1.03 1.03 1.01 1.01 1.01 1.03 1.07 1.11 1.11 1.13 1.11 1.11 1.07 1.03 0.99 0.97 0.93 0.91 0.89 0.89 0.87 0.87 0.89 0.91 0.91 0.89 0.87 0.87 0.89 0.93 0.95 0.97 0.97 0.95 0.95 0.95 0.93 0.89 0.83 0.81 0.79 0.77 0.77 0.77 0.76 0.76 0.77 0.76 0.72 0.70 0.66 0.64 0.64 0.62 0.62 0.62 0.62 0.60 0.60 0.60 0.60
0.81 0.87 0.91 0.93 0.95 0.95 0.97 0.97 0.97 0.99 0.99 1.01 1.01 1.01 1.03 1.05 1.11 1.13 1.13 1.09 1.05 1.01 0.97 0.97 0.95 0.93 0.91 0.89 0.89 0.89 0.91 0.91 0.91 0.91 0.89 0.89 0.93 0.95 0.97 0.97 0.97 0.95 0.95 0.91 0.87 0.85 0.81 0.79 0.77 0.77 0.77 0.77 0.77 0.77 0.76 0.74 0.70 0.68 0.66 0.64 0.64 0.62 0.62 0.60 0.60 0.60 0.60 0.60 0.58
0.81 0.85 0.87 0.89 0.91 0.91 0.93 0.93 0.93 0.95 0.99 1.01 1.01 1.03 1.05 1.07 1.11 1.11 1.11 1.07 1.03 0.99 0.99 0.97 0.95 0.93 0.91 0.91 0.91 0.91 0.93 0.93 0.93 0.91 0.91 0.91 0.93 0.95 0.97 0.97 0.97 0.95 0.93 0.87 0.83 0.81 0.79 0.77 0.77 0.77 0.77 0.77 0.77 0.77 0.76 0.72 0.70 0.68 0.66 0.66 0.64 0.64 0.62 0.60 0.60 0.60 0.60 0.60 0.58
0.81 0.83 0.85 0.87 0.87 0.89 0.89 0.91 0.93 0.95 0.97 1.01 1.01 1.03 1.03 1.05 1.09 1.09 1.07 1.05 1.01 0.99 0.99 0.97 0.95 0.95 0.93 0.93 0.93 0.93 0.93 0.95 0.93 0.91 0.91 0.93 0.95 0.95 0.97 0.95 0.95 0.91 0.85 0.83 0.79 0.77 0.77 0.77 0.77 0.77 0.77 0.77 0.77 0.77 0.76 0.72 0.70 0.68 0.66 0.66 0.64 0.62 0.62 0.60 0.60 0.60 0.60 0.58 0.58
0.81 0.81 0.83 0.83 0.85 0.87 0.89 0.89 0.91 0.95 0.97 0.99 1.01 1.01 1.01 1.01 1.05 1.07 1.05 1.03 1.01 0.99 0.97 0.97 0.97 0.95 0.93 0.93 0.93 0.93 0.93 0.95 0.93 0.93 0.93 0.93 0.95 0.95 0.95 0.95 0.93 0.87 0.81 0.79 0.77 0.77 0.77 0.77 0.77 0.77 0.77 0.79 0.77 0.76 0.74 0.72 0.70 0.68 0.66 0.66 0.64 0.62 0.60 0.60 0.60 0.60 0.60 0.58 0.56
0.79 0.81 0.81 0.83 0.85 0.85 0.87 0.89 0.91 0.95 0.97 0.99 0.99 0.99 0.99 1.01 1.05 1.05 1.03 1.01 0.99 0.97 0.97 0.95 0.95 0.95 0.95 0.95 0.95 0.95 0.95 0.95 0.93 0.93 0.93 0.95 0.95 0.95 0.95 0.95 0.91 0.85 0.79 0.77 0.77 0.77 0.77 0.77 0.77 0.77 0.77 0.77 0.77 0.76 0.74 0.72 0.70 0.68 0.66 0.64 0.62 0.60 0.60 0.60 0.60 0.60 0.60 0.58 0.56
0.79 0.81 0.81 0.83 0.83 0.85 0.87 0.89 0.93 0.95 0.97 0.97 0.97 0.97 0.99 1.01 1.05 1.05 1.01 0.99 0.97 0.95 0.95 0.93 0.93 0.93 0.93 0.95 0.95 0.95 0.95 0.95 0.93 0.93 0.93 0.95 0.95 0.95 0.93 0.91 0.87 0.81 0.77 0.77 0.77 0.77 0.79 0.79 0.79 0.79 0.79 0.77 0.76 0.74 0.72 0.72 0.70 0.68 0.66 0.64 0.62 0.60 0.60 0.60 0.60 0.60 0.60 0.58 0.58
0.81 0.81 0.81 0.81 0.83 0.85 0.87 0.91 0.93 0.97 0.97 0.97 0.97 0.99 1.01 1.03 1.05 1.03 1.01 0.99 0.95 0.93 0.93 0.91 0.91 0.91 0.93 0.93 0.95 0.95 0.93 0.93 0.93 0.93 0.93 0.93 0.93 0.91 0.89 0.85 0.81 0.79 0.77 0.79 0.79 0.79 0.79 0.79 0.79 0.79 0.79 0.77 0.76 0.74 0.72 0.70 0.68 0.66 0.64 0.62 0.62 0.60 0.60 0.60 0.62 0.60 0.60 0.58 0.58
0.83 0.83 0.83 0.83 0.85 0.87 0.89 0.93 0.95 0.97 0.97 0.97 0.99 1.01 1.03 1.05 1.05 1.01 0.99 0.97 0.95 0.93 0.91 0.89 0.89 0.89 0.91 0.93 0.93 0.93 0.93 0.93 0.93 0.93 0.93 0.91 0.89 0.87 0.83 0.81 0.79 0.79 0.79 0.81 0.81 0.81 0.81 0.81 0.81 0.79 0.79 0.77 0.76 0.72 0.70 0.68 0.66 0.64 0.62 0.62 0.62 0.62 0.62 0.62 0.62 0.62 0.60 0.60 0.58
0.83 0.85 0.85 0.85 0.87 0.89 0.91 0.93 0.95 0.97 0.97 0.97 0.99 1.01 1.03 1.03 1.03 1.01 0.97 0.95 0.93 0.91 0.89 0.87 0.87 0.89 0.89 0.91 0.91 0.93 0.93 0.93 0.93 0.91 0.91 0.89 0.85 0.81 0.79 0.79 0.79 0.81 0.81 0.83 0.81 0.81 0.81 0.81 0.81 0.79 0.79 0.77 0.76 0.72 0.70 0.66 0.64 0.64 0.62 0.62 0.62 0.64 0.64 0.64 0.64 0.62 0.60 0.60 0.60
0.83 0.85 0.87 0.87 0.89 0.91 0.93 0.95 0.95 0.95 0.97 0.99 1.01 1.01 1.03 1.03 1.01 0.97 0.93 0.91 0.91 0.89 0.87 0.85 0.87 0.87 0.87 0.89 0.91 0.91 0.91 0.91 0.91 0.89 0.87 0.85 0.83 0.81 0.81 0.81 0.83 0.83 0.85 0.85 0.85 0.85 0.85 0.83 0.83 0.81 0.79 0.77 0.74 0.70 0.68 0.64 0.64 0.64 0.64 0.64 0.66 0.66 0.66 0.66 0.64 0.62 0.60 0.60 0.60
0.83 0.85 0.87 0.89 0.91 0.91 0.93 0.93 0.95 0.95 0.97 0.99 1.01 1.01 1.01 0.99 0.97 0.95 0.91 0.89 0.87 0.87 0.85 0.85 0.85 0.87 0.87 0.89 0.89 0.89 0.89 0.89 0.89 0.87 0.85 0.85 0.85 0.85 0.85 0.85 0.87 0.87 0.87 0.85 0.87 0.87 0.87 0.85 0.81 0.79 0.77 0.74 0.70 0.68 0.66 0.66 0.66 0.66 0.66 0.68 0.68 0.66 0.66 0.64 0.62 0.62 0.60 0.60 0.58
0.85 0.87 0.89 0.89 0.91 0.93 0.93 0.93 0.93 0.95 0.97 0.99 1.01 1.01 0.99 0.97 0.95 0.93 0.91 0.87 0.87 0.85 0.85 0.87 0.89 0.89 0.89 0.89 0.89 0.89 0.89 0.89 0.87 0.87 0.87 0.87 0.87 0.87 0.87 0.87 0.87 0.85 0.85 0.85 0.87 0.87 0.85 0.81 0.79 0.77 0.74 0.68 0.68 0.66 0.66 0.66 0.66 0.68 0.68 0.68 0.68 0.66 0.64 0.62 0.60 0.60 0.58 0.58 0.58
0.87 0.89 0.91 0.91 0.93 0.93 0.93 0.93 0.95 0.97 0.99 0.99 0.99 0.99 0.97 0.95 0.93 0.91 0.89 0.87 0.87 0.87 0.89 0.89 0.91 0.91 0.91 0.91 0.89 0.89 0.89 0.89 0.89 0.89 0.89 0.89 0.87 0.87 0.87 0.85 0.85 0.83 0.83 0.85 0.85 0.83 0.81 0.79 0.76 0.72 0.68 0.68 0.66 0.68 0.68 0.68 0.68 0.68 0.68 0.66 0.66 0.62 0.60 0.58 0.58 0.56 0.56 0.56 0.56
0.89 0.91 0.93 0.93 0.93 0.95 0.95 0.95 0.97 0.97 0.99 0.99 0.97 0.97 0.95 0.93 0.91 0.91 0.89 0.89 0.89 0.89 0.91 0.91 0.93 0.93 0.93 0.91 0.89 0.89 0.89 0.89 0.89 0.87 0.87 0.87 0.87 0.87 0.85 0.83 0.83 0.83 0.83 0.83 0.81 0.79 0.77 0.76 0.72 0.70 0.68 0.68 0.68 0.68 0.70 0.70 0.70 0.68 0.68 0.66 0.62 0.58 0.56 0.56 0.56 0.56 0.54 0.54 0.52
0.93 0.93 0.95 0.95 0.95 0.95 0.95 0.97 0.97 0.97 0.97 0.97 0.95 0.95 0.93 0.91 0.89 0.89 0.89 0.89 0.91 0.91 0.91 0.93 0.93 0.93 0.93 0.91 0.91 0.89 0.89 0.89 0.89 0.87 0.87 0.87 0.85 0.85 0.85 0.85 0.85 0.85 0.83 0.81 0.79 0.77 0.74 0.72 0.70 0.70 0.70 0.70 0.70 0.70 0.70 0.70 0.68 0.66 0.66 0.64 0.60 0.58 0.56 0.56 0.54 0.54 0.52 0.50 0.50
0.95 0.95 0.95 0.95 0.95 0.95 0.95 0.95 0.95 0.95 0.95 0.95 0.93 0.91 0.91 0.89 0.89 0.89 0.91 0.91 0.91 0.91 0.91 0.91 0.91 0.91 0.91 0.89 0.87 0.89 0.89 0.89 0.87 0.87 0.85 0.85 0.85 0.85 0.85 0.87 0.85 0.83 0.81 0.79 0.77 0.76 0.74 0.72 0.72 0.72 0.70 0.70 0.70 0.68 0.68 0.68 0.66 0.64 0.62 0.60 0.60 0.58 0.56 0.54 0.52 0.50 0.48 0.48 0.46
0.93 0.93 0.93 0.93 0.93 0.93 0.93 0.93 0.93 0.93 0.93 0.91 0.91 0.89 0.89 0.89 0.91 0.91 0.91 0.89 0.91 0.91 0.91 0.91 0.91 0.89 0.87 0.85 0.87 0.87 0.87 0.87 0.87 0.87 0.85 0.85 0.85 0.85 0.85 0.85 0.83 0.81 0.79 0.77 0.77 0.76 0.74 0.74 0.74 0.72 0.72 0.70 0.68 0.68 0.66 0.64 0.64 0.62 0.60 0.60 0.58 0.56 0.54 0.52 0.48 0.46 0.44 0.42 0.42
0.93 0.93 0.93 0.93 0.93 0.93 0.93 0.93 0.91 0.91 0.91 0.91 0.89 0.89 0.91 0.91 0.91 0.89 0.89 0.89 0.89 0.89 0.89 0.89 0.87 0.87 0.85 0.87 0.87 0.87 0.87 0.87 0.85 0.85 0.85 0.85 0.85 0.85 0.83 0.81 0.79 0.77 0.77 0.76 0.76 0.74 0.74 0.72 0.72 0.72 0.72 0.70 0.68 0.66 0.64 0.62 0.62 0.60 0.60 0.60 0.56 0.54 0.52 0.50 0.48 0.44 0.40 0.38 0.36
0.93 0.93 0.93 0.93 0.93 0.93 0.93 0.93 0.91 0.91 0.91 0.91 0.91 0.91 0.91 0.89 0.89 0.89 0.89 0.89 0.89 0.87 0.87 0.85 0.85 0.85 0.85 0.85 0.85 0.85 0.85 0.85 0.83 0.83 0.83 0.83 0.81 0.81 0.79 0.77 0.76 0.76 0.76 0.74 0.74 0.74 0.72 0.72 0.72 0.72 0.72 0.70 0.68 0.66 0.64 0.62 0.62 0.60 0.58 0.58 0.52 0.50 0.46 0.44 0.42 0.40 0.38 0.36 0.32
0.95 0.95 0.95 0.93 0.93 0.93 0.93 0.93 0.93 0.91 0.91 0.91 0.89 0.89 0.89 0.89 0.87 0.87 0.87 0.87 0.85 0.85 0.83 0.85 0.85 0.85 0.85 0.85 0.83 0.83 0.83 0.83 0.81 0.81 0.81 0.79 0.77 0.77 0.76 0.76 0.76 0.74 0.74 0.74 0.74 0.72 0.72 0.70 0.70 0.70 0.70 0.68 0.68 0.66 0.64 0.64 0.60 0.58 0.54 0.48 0.46 0.44 0.42 0.38 0.36 0.34 0.32 0.30 0.30
0.93 0.93 0.93 0.93 0.93 0.93 0.93 0.91 0.91 0.91 0.91 0.89 0.89 0.87 0.87 0.85 0.85 0.85 0.85 0.83 0.83 0.83 0.83 0.83 0.83 0.83 0.83 0.83 0.83 0.81 0.81 0.79 0.79 0.79 0.77 0.76 0.76 0.74 0.74 0.74 0.74 0.74 0.74 0.74 0.74 0.72 0.70 0.70 0.70 0.70 0.70 0.68 0.66 0.64 0.62 0.60 0.58 0.56 0.50 0.42 0.40 0.38 0.36 0.34 0.32 0.30 0.28 0.28 0.26
0.93 0.93 0.91 0.91 0.91 0.91 0.91 0.91 0.91 0.89 0.89 0.87 0.87 0.85 0.85 0.83 0.83 0.81 0.81 0.81 0.81 0.81 0.81 0.81 0.81 0.81 0.81 0.81 0.81 0.79 0.79 0.79 0.79 0.77 0.74 0.72 0.72 0.72 0.72 0.72 0.74 0.74 0.74 0.76 0.74 0.72 0.70 0.70 0.70 0.70 0.68 0.66 0.64 0.62 0.60 0.56 0.54 0.50 0.46 0.40 0.36 0.32 0.30 0.30 0.28 0.26 0.26 0.26 0.26
0.91 0.91 0.91 0.89 0.89 0.89 0.89 0.89 0.87 0.85 0.85 0.83 0.83 0.83 0.81 0.81 0.81 0.81 0.79 0.81 0.81 0.81 0.81 0.81 0.81 0.81 0.81 0.81 0.81 0.81 0.79 0.77 0.76 0.74 0.72 0.72 0.72 0.72 0.74 0.74 0.74 0.74 0.74 0.74 0.72 0.70 0.70 0.70 0.70 0.68 0.66 0.62 0.60 0.56 0.54 0.50 0.48 0.42 0.36 0.34 0.32 0.30 0.28 0.26 0.26 0.26 0.26 0.26 0.26
0.89 0.89 0.89 0.89 0.87 0.87 0.87 0.85 0.85 0.83 0.83 0.83 0.81 0.81 0.81 0.81 0.79 0.79 0.79 0.79 0.81 0.81 0.83 0.83 0.83 0.83 0.83 0.81 0.81 0.79 0.77 0.76 0.74 0.72 0.72 0.72 0.74 0.74 0.74 0.74 0.74 0.74 0.72 0.72 0.72 0.70 0.70 0.68 0.68 0.64 0.60 0.56 0.52 0.50 0.46 0.44 0.40 0.36 0.30 0.30 0.28 0.28 0.26 0.26 0.26 0.26 0.26 0.26 0.26
0.87 0.85 0.85 0.85 0.85 0.85 0.85 0.83 0.83 0.83 0.83 0.81 0.81 0.81 0.81 0.81 0.79 0.79 0.81 0.81 0.81 0.83 0.83 0.83 0.83 0.83 0.81 0.79 0.77 0.77 0.76 0.74 0.74 0.74 0.74 0.74 0.74 0.72 0.72 0.72 0.72 0.72 0.72 0.70 0.70 0.68 0.66 0.66 0.64 0.58 0.54 0.48 0.46 0.42 0.38 0.36 0.34 0.30 0.26 0.26 0.26 0.26 0.26 0.26 0.26 0.26 0.26 0.26 0.26
0.85 0.83 0.83 0.83 0.83 0.83 0.83 0.83 0.83 0.83 0.83 0.83 0.83 0.81 0.81 0.81 0.81 0.81 0.81 0.83 0.83 0.81 0.81 0.79 0.79 0.77 0.77 0.76 0.76 0.74 0.74 0.74 0.74 0.74 0.74 0.74 0.72 0.72 0.72 0.72 0.72 0.70 0.68 0.68 0.66 0.62 0.60 0.58 0.56 0.54 0.48 0.42 0.38 0.36 0.32 0.30 0.26 0.24 0.24 0.24 0.24 0.26 0.26 0.26 0.26 0.26 0.26 0.26 0.26
0.83 0.83 0.83 0.83 0.83 0.83 0.83 0.83 0.83 0.83 0.83 0.83 0.83 0.83 0.81 0.81 0.81 0.81 0.81 0.81 0.79 0.79 0.77 0.76 0.76 0.74 0.74 0.74 0.72 0.72 0.72 0.72 0.72 0.72 0.72 0.72 0.72 0.72 0.70 0.70 0.68 0.66 0.62 0.62 0.58 0.56 0.54 0.50 0.48 0.44 0.42 0.38 0.34 0.30 0.28 0.26 0.24 0.24 0.24 0.24 0.24 0.26 0.26 0.26 0.26 0.26 0.26 0.24 0.24
0.85 0.85 0.85 0.85 0.85 0.85 0.85 0.83 0.83 0.83 0.83 0.83 0.83 0.83 0.81 0.81 0.81 0.79 0.79 0.79 0.77 0.76 0.76 0.74 0.74 0.74 0.74 0.72 0.72 0.72 0.72 0.72 0.72 0.72 0.72 0.70 0.70 0.68 0.66 0.64 0.60 0.58 0.56 0.54 0.50 0.48 0.44 0.42 0.40 0.38 0.34 0.32 0.30 0.28 0.26 0.24 0.24 0.24 0.24 0.24 0.24 0.24 0.26 0.26 0.24 0.24 0.24 0.22 0.22
0.85 0.85 0.85 0.85 0.85 0.85 0.85 0.83 0.83 0.83 0.83 0.83 0.81 0.81 0.81 0.79 0.79 0.77 0.77 0.77 0.77 0.76 0.76 0.74 0.74 0.74 0.74 0.74 0.74 0.72 0.72 0.70 0.70 0.68 0.66 0.66 0.64 0.62 0.60 0.54 0.52 0.50 0.48 0.44 0.42 0.38 0.36 0.36 0.34 0.32 0.30 0.28 0.26 0.26 0.24 0.24 0.24 0.24 0.24 0.24 0.24 0.24 0.24 0.24 0.24 0.24 0.22 0.22 0.22
0.85 0.85 0.85 0.85 0.85 0.83 0.83 0.81 0.81 0.81 0.81 0.81 0.79 0.79 0.77 0.77 0.77 0.77 0.77 0.77 0.77 0.76 0.76 0.76 0.74 0.74 0.74 0.72 0.70 0.68 0.68 0.66 0.64 0.64 0.62 0.60 0.60 0.56 0.52 0.48 0.44 0.40 0.38 0.36 0.34 0.32 0.30 0.30 0.30 0.28 0.28 0.26 0.26 0.26 0.26 0.26 0.24 0.24 0.24 0.24 0.24 0.24 0.24 0.24 0.22 0.22 0.20 0.20 0.20
0.85 0.85 0.83 0.83 0.83 0.81 0.81 0.79 0.79 0.79 0.79 0.77 0.77 0.77 0.77 0.77 0.77 0.77 0.76 0.76 0.76 0.76 0.74 0.74 0.72 0.70 0.68 0.68 0.66 0.64 0.64 0.62 0.62 0.60 0.60 0.58 0.52 0.48 0.44 0.40 0.36 0.34 0.30 0.30 0.28 0.28 0.28 0.28 0.28 0.28 0.28 0.28 0.28 0.28 0.26 0.26 0.24 0.24 0.24 0.24 0.24 0.22 0.22 0.22 0.22 0.20 0.20 0.20 0.20
Wind_Speed
43 43 42 41 40 39 38 38 37 37 37 37 37 37 36 36 36 36 36 35 35 35 35 36 36 36 35 35 35 34 33 33 33 33 32 32 31 30 30 29 28 28 27 26 24 23 22 22 23 24 24 24 23 22 22 22 22 23 23 23 23 23 23 23 23 24 24 24 25
44 44 43 42 41 40 39 38 38 37 37 37 37 37 37 36 36 35 35 34 34 34 35 35 35 35 35 35 35 34 33 33 32 32 32 31 30 30 29 29 28 28 27 26 24 23 22 22 23 24 24 24 23 22 22 23 23 23 23 23 24 24 24 24 24 24 24 25 25
45 44 44 43 42 41 40 39 38 38 37 37 37 36 36 35 35 34 34 34 33 34 34 34 35 35 35 35 34 34 33 32 32 32 31 30 30 30 29 29 28 28 27 26 24 23 22 23 24 25 25 24 23 22 22 23 23 24 24 24 24 24 24 24 24 25 25 25 26
45 45 44 43 42 41 40 39 39 38 37 37 36 35 35 34 34 34 33 33 33 33 33 34 34 34 34 34 34 33 33 32 31 31 30 30 30 29 29 28 28 28 27 26 24 23 23 24 25 25 25 24 23 22 23 24 24 24 24 24 24 24 25 25 25 25 25 26 26
45 45 44 44 43 42 41 40 39 38 37 36 35 35 34 34 34 33 33 33 33 33 33 33 33 34 34 33 33 32 32 31 31 30 30 29 29 29 29 28 28 28 27 26 24 23 23 24 25 25 25 24 23 23 24 24 24 24 24 25 25 25 25 25 25 25 26 26 27
45 45 44 44 43 42 41 39 38 38 37 36 35 35 34 33 33 33 33 33 33 33 33 33 33 33 33 33 32 32 31 31 31 30 30 29 29 29 28 28 28 28 27 26 24 24 24 25 25 25 25 24 23 24 24 24 24 24 24 25 25 25 25 25 26 26 26 27 27
45 45 44 44 43 42 41 39 38 38 37 36 35 35 35 34 34 33 33 33 33 33 32 32 32 32 32 32 32 31 31 30 30 30 29 29 29 28 28 28 28 28 26 25 24 24 25 25 25 25 24 24 24 24 25 25 24 24 24 25 25 25 26 26 26 26 27 27 27
43 44 44 43 43 42 41 40 39 38 37 36 35 35 35 35 34 33 33 33 33 33 32 32 32 32 32 32 31 31 30 30 30 30 29 29 28 28 28 28 28 27 26 25 25 25 25 26 26 25 24 24 24 25 25 24 24 24 25 25 25 26 26 26 26 27 27 27 28
42 43 43 42 42 41 40 40 39 38 37 36 35 34 34 34 34 33 33 33 33 32 32 32 32 32 31 31 31 31 30 30 30 29 29 29 28 28 28 28 28 27 26 25 25 25 25 26 25 25 25 25 25 25 25 24 24 25 25 25 26 26 26 26 27 27 27 28 28
41 41 42 42 41 41 40 40 39 38 37 36 35 34 34 34 34 34 33 33 32 32 32 32 31 31 31 30 30 30 30 30 30 29 29 28 28 28 29 28 27 26 25 25 25 25 25 25 25 25 25 25 25 25 25 25 25 25 25 26 26 26 26 27 27 27 28 28 29
40 40 41 41 41 41 40 39 38 37 36 35 35 34 33 33 34 34 33 32 32 31 31 31 31 30 30 30 30 30 30 30 29 29 29 28 28 28 28 28 26 25 25 25 25 25 25 25 25 25 25 25 25 25 25 25 25 25 25 26 26 26 27 27 27 28 28 29 29
39 40 40 41 41 41 40 39 38 37 36 35 34 34 33 33 33 33 33 32 31 30 30 30 30 30 29 29 29 30 29 29 29 29 28 28 28 28 28 27 26 25 25 25 25 25 25 25 25 25 25 25 25 25 25 25 25 25 25 26 26 26 27 27 27 28 28 29 30
38 39 40 40 40 40 39 38 37 36 35 35 34 34 33 33 33 33 32 31 30 29 29 29 29 29 29 29 29 29 29 29 29 28 28 27 28 28 27 26 25 25 25 25 25 25 25 25 25 25 25 25 25 25 25 25 25 25 25 26 26 26 27 27 27 28 29 30 31
38 39 39 40 40 40 39 38 36 35 35 35 34 33 32 32 32 32 32 30 29 29 28 28 28 28 28 28 28 28 28 28 28 28 28 28 28 27 27 26 26 25 25 25 24 24 24 24 25 25 25 25 25 25 25 25 25 25 25 26 26 27 27 27 28 29 30 31 31
38 39 39 39 39 39 38 37 36 35 34 34 33 33 32 32 32 32 31 30 28 28 27 27 28 28 28 28 28 28 28 28 28 28 28 27 27 27 26 26 26 25 24 24 23 24 24 24 25 25 25 24 24 25 25 25 25 25 25 26 26 27 27 28 28 29 30 31 32
38 38 39 39 38 38 37 36 35 34 34 33 32 32 31 31 32 31 30 29 27 27 27 27 27 28 28 27 27 27 27 28 28 28 27 27 26 26 26 26 25 24 24 23 23 23 24 24 24 25 24 24 24 24 25 25 25 25 25 26 26 27 27 28 29 30 31 32 32
37 38 38 38 37 37 36 35 34 34 33 32 31 31 31 31 31 30 29 27 27 27 27 27 28 28 27 27 27 27 27 28 28 27 26 26 26 25 25 25 24 23 23 22 23 23 24 24 24 24 24 24 24 24 25 25 25 25 25 26 26 27 28 29 30 31 32 32 32
36 37 37 36 36 36 35 34 33 33 32 31 30 30 30 30 30 29 27 26 26 27 27 28 28 27 27 26 26 26 27 27 26 26 25 25 25 24 24 23 22 22 22 22 23 23 23 23 23 23 23 24 24 24 24 24 24 25 25 26 26 28 29 30 31 32 32 32 32
35 35 35 35 35 34 34 33 32 31 31 30 29 29 29 29 28 27 26 26 26 27 27 27 27 26 26 25 25 25 26 25 25 24 24 24 24 23 22 22 22 22 22 23 23 23 23 23 22 23 23 24 25 25 24 24 24 25 25 26 27 29 30 31 32 32 32 32 32
34 34 34 34 33 33 32 31 31 30 29 28 28 28 28 28 27 26 26 26 26 27 26 26 25 25 24 24 24 24 24 24 23 23 23 23 22 22 22 22 22 22 22 23 23 23 22 22 22 23 24 25 25 24 24 24 25 25 26 27 28 30 31 31 32 32 32 32 33
32 32 32 32 31 31 30 30 29 28 27 27 27 27 27 26 26 25 26 26 26 26 25 24 24 23 23 23 23 23 23 23 22 22 22 22 22 22 22 22 22 22 23 23 22 22 22 22 23 24 25 25 24 24 24 24 25 26 27 28 30 31 31 32 32 32 32 33 34
30 30 30 29 29 29 28 28 27 26 26 26 26 26 26 25 25 25 25 26 25 24 23 23 23 23 23 22 22 22 22 22 22 22 22 21 21 22 22 22 22 22 22 22 22 21 21 22 23 24 24 24 24 24 24 25 26 27 28 29 30 31 31 32 32 32 33 34 35
27 27 27 27 27 27 26 26 25 25 25 25 25 25 25 24 25 25 25 25 24 23 22 22 22 22 22 22 22 22 22 22 21 21 21 21 21 21 21 21 21 22 22 21 21 20 20 21 22 23 23 23 23 24 25 25 27 28 29 30 31 31 31 32 32 33 34 34 35
25 25 25 25 25 25 25 24 24 25 25 25 24 24 24 24 24 24 24 23 22 22 21 22 22 21 21 21 21 21 21 21 21 21 21 21 21 20 20 20 21 21 20 20 20 20 21 21 21 22 22 23 24 24 25 26 28 29 30 30 31 31 31 32 33 33 34 35 36
23 23 23 23 23 23 24 24 24 24 24 24 23 23 23 24 24 23 22 21 21 21 21 21 21 20 20 20 20 21 21 21 21 20 20 20 19 19 19 19 20 19 19 19 19 20 21 21 21 22 23 23 24 25 26 28 29 29 30 30 31 31 32 32 33 34 35 36 36
22 22 22 22 22 23 23 24 24 23 23 23 23 23 23 22 22 21 20 20 20 20 20 20 19 19 19 20 20 20 21 21 20 19 19 18 18 18 18 18 18 19 19 19 20 20 20 21 21 22 23 24 25 26 27 28 29 30 30 30 30 31 32 33 34 35 35 35 35
21 21 21 21 22 22 22 22 22 22 22 22 22 22 21 21 20 20 20 20 19 19 19 18 18 18 19 19 20 20 20 19 18 18 17 17 17 17 17 17 18 18 19 19 19 20 20 21 22 23 24 25 26 27 28 29 29 29 29 30 31 32 33 34 34 35 35 35 35
21 21 21 21 21 22 22 22 21 21 21 21 21 21 20 20 19 19 19 18 18 17 17 17 18 18 18 18 19 18 18 17 17 16 16 16 16 15 16 17 17 18 18 18 19 20 21 22 23 24 25 26 27 28 28 29 29 29 30 31 32 33 33 34 34 34 35 35 35
21 21 22 22 21 21 21 21 20 20 20 20 20 19 19 19 18 18 17 17 17 16 17 17 17 17 17 17 17 16 16 16 16 16 15 15 15 15 16 16 17 17 18 18 19 20 21 23 24 25 26 27 27 28 28 28 29 29 30 31 32 33 33 34 34 34 34 34 35
20 21 21 21 20 20 20 20 19 19 19 19 19 18 18 18 17 17 16 16 16 16 16 16 16 16 15 15 15 15 15 15 15 15 14 14 14 15 16 16 17 17 18 19 20 22 23 24 25 25 26 27 27 27 28 28 29 30 31 32 32 33 33 33 33 34 34 34 35
19 19 19 19 19 19 19 19 18 18 18 18 18 17 17 16 16 16 15 15 15 15 15 15 14 14 14 14 14 14 15 15 15 14 14 14 14 15 15 16 17 18 19 20 22 23 24 25 25 26 26 26 26 27 28 29 30 31 31 32 32 32 32 33 33 33 34 34 34
18 18 18 18 18 18 18 18 18 18 18 17 17 17 16 15 15 15 15 15 14 14 14 13 13 13 13 14 14 15 15 14 14 14 14 14 14 15 16 17 18 20 21 22 23 24 25 25 25 25 25 25 26 27 28 29 30 31 31 31 31 32 32 32 33 33 34 34 34
17 17 17 17 17 17 17 17 17 17 17 17 16 15 15 15 15 14 14 14 13 13 13 12 12 13 13 14 14 15 14 14 14 14 14 14 15 16 17 19 20 22 22 23 24 25 25 25 24 24 25 26 27 28 29 29 30 30 30 31 31 31 32 32 33 33 33 34 34
16 16 16 16 16 16 16 17 17 17 16 16 15 15 15 15 15 14 14 13 13 12 12 12 12 12 13 14 14 14 14 13 14 14 15 15 16 17 19 20 22 23 23 24 24 24 24 23 24 24 25 26 27 28 29 29 29 30 30 30 31 31 32 32 33 33 33 34 34
15 15 15 15 15 15 16 16 16 16 15 15 15 15 15 15 14 14 13 12 12 11 11 11 11 12 12 13 13 13 14 14 14 15 15 16 17 19 20 21 22 23 23 23 23 22 23 23 24 25 26 27 27 28 28 29 29 29 30 30 31 31 32 32 33 33 34 34 34
15 15 14 14 15 15 15 15 15 15 15 15 16 16 15 15 14 13 12 11 10 10 10 10 11 12 13 13 13 14 14 14 15 15 16 17 18 19 20 21 22 22 21 21 21 22 23 23 24 25 26 26 27 28 28 28 29 29 30 30 31 31 32 32 33 33 34 34 35
14 13 13 13 13 14 15 16 16 16 16 16 16 16 15 14 12 11 10 10 9 9 10 11 11 12 12 13 13 14 14 14 15 16 17 18 19 19 20 20 20 20 20 20 21 22 23 23 24 25 25 26 27 27 28 28 29 29 30 30 31 31 32 32 33 33 34 34 35
12 11 11 11 11 13 14 15 16 17 17 17 16 15 14 12 11 10 10 9 9 10 10 11 11 11 12 12 12 13 14 14 15 16 17 17 18 18 18 18 19 20 20 21 21 22 23 24 24 25 25 26 27 27 28 28 29 29 30 30 31 32 32 33 33 33 34 34 35
10 10 10 9 10 11 12 12 13 14 15 15 14 13 12 11 10 10 10 10 10 10 10 11 11 11 11 12 12 13 13 14 14 15 15 16 16 17 17 18 19 20 21 21 22 22 23 24 24 24 25 26 27 27 28 28 29 29 30 30 31 32 32 33 33 33 34 34 35
10 10 10 10 10 11 11 11 12 12 12 12 12 11 11 10 10 10 10 10 10 11 11 11 11 11 11 12 12 12 13 13 14 14 14 15 16 17 18 18 19 20 21 21 22 22 23 24 24 25 25 26 27 27 28 28 29 29 30 30 31 32 32 33 33 33 34 34 35
10 10 10 10 10 10 11 11 11 11 11 11 11 11 11 10 10 10 10 10 11 11 11 11 11 11 11 11 12 12 12 13 13 14 15 16 16 17 18 19 20 20 21 22 22 23 23 24 25 25 26 26 27 28 28 28 29 29 30 31 31 31 32 33 33 33 34 34 34
Wind_Direction
243 243 244 244 245 245 246 247 246 246 245 244 243 243 243 242 242 242 242 242 242 243 243 244 245 245 246 246 247 247 248 248 249 249 249 249 248 247 246 246 245 244 244 245 247 250 253 256 257 258 259 260 261 263 265 267 268 269 270 271 272 274 276 278 280 281 283 284 285
242 243 243 244 244 245 246 246 246 246 245 245 244 244 243 243 242 242 242 242 243 243 244 244 245 245 246 246 246 247 247 247 248 248 248 247 246 245 245 245 244 243 243 244 247 250 253 256 257 258 258 259 261 263 265 267 268 269 270 271 272 274 276 278 280 281 283 284 285
241 242 242 243 243 244 245 246 246 245 245 245 245 244 244 243 243 243 242 242 243 243 244 245 245 246 246 246 246 247 247 247 247 247 247 245 244 244 244 244 244 243 243 244 247 251 254 256 257 257 258 259 261 262 264 266 267 269 269 271 272 274 276 278 280 281 283 284 285
240 241 241 241 242 243 244 245 246 245 245 245 245 245 244 244 243 243 243 243 242 243 244 245 246 246 246 246 246 246 246 247 247 246 245 244 243 243 243 243 243 243 242 244 247 251 254 256 257 257 258 259 260 262 264 266 267 268 269 271 272 274 276 278 280 282 283 284 286
239 240 240 240 241 241 243 244 245 245 245 245 246 245 245 244 244 243 243 242 242 243 244 245 246 246 246 246 245 246 246 246 246 245 243 242 242 242 242 243 243 242 242 244 247 252 255 257 257 257 258 259 261 262 264 265 267 268 269 271 272 274 276 278 280 282 283 285 286
238 239 239 239 239 240 241 243 243 243 244 244 245 245 245 244 244 243 242 242 242 243 244 245 245 245 245 245 245 245 246 246 246 244 242 241 241 241 242 242 242 242 242 244 248 252 255 256 256 257 258 259 261 263 264 265 266 268 270 271 273 274 276 278 280 282 284 285 286
238 238 238 238 238 238 239 240 241 242 242 243 243 244 244 243 242 242 242 242 242 243 243 244 244 244 244 244 244 245 245 246 245 243 241 241 241 241 241 241 241 241 242 245 249 253 255 255 255 256 258 260 262 264 265 266 267 268 270 271 273 275 277 279 281 283 284 285 286
237 237 237 237 237 237 237 238 239 239 240 241 242 243 243 241 240 241 243 243 243 243 243 244 244 244 244 244 244 244 245 244 243 242 241 240 240 240 240 240 240 240 242 246 250 253 254 254 255 256 258 260 262 264 265 266 268 269 270 272 273 275 277 279 281 283 284 286 287
237 236 236 236 236 236 236 236 237 237 238 240 240 241 242 242 241 242 242 242 243 243 243 243 243 243 243 243 244 244 244 243 242 240 240 240 239 239 239 239 239 240 243 247 250 252 253 254 255 257 259 261 262 264 265 266 268 269 270 272 274 276 278 280 282 283 285 286 288
235 235 235 234 234 234 234 235 235 236 237 238 239 240 241 242 243 242 242 241 241 242 242 242 242 243 243 243 243 243 243 242 240 239 239 239 238 238 238 238 239 241 244 248 250 252 253 254 256 258 260 262 262 263 264 266 267 268 270 272 274 277 279 281 282 284 285 287 288
233 233 233 233 232 232 232 233 233 234 236 237 238 239 241 242 242 242 240 239 239 240 241 242 242 242 242 243 243 243 242 241 239 238 238 237 237 237 237 238 239 241 245 247 250 251 253 255 257 259 260 262 262 262 263 265 267 268 270 273 275 277 279 281 283 285 286 288 290
232 231 231 231 230 230 230 231 232 233 234 236 237 238 240 241 241 240 238 237 238 239 240 241 241 241 242 243 243 242 241 240 239 238 237 237 237 237 237 238 240 242 244 246 248 250 253 255 257 259 260 261 261 262 263 265 267 269 271 274 276 278 280 281 283 285 288 289 291
230 229 229 228 228 228 229 229 230 232 233 234 235 237 239 240 240 238 236 236 237 239 240 240 241 241 242 243 243 242 241 239 238 237 237 236 236 237 237 238 240 242 244 246 248 250 252 255 257 258 259 259 260 262 265 267 268 270 272 275 277 279 280 282 284 286 289 290 291
228 227 227 227 227 227 227 227 229 230 231 232 234 236 237 238 238 237 235 235 236 238 239 240 240 241 242 242 242 241 240 238 237 236 236 236 236 236 237 238 240 242 243 246 248 250 253 256 258 258 258 258 260 263 266 268 269 271 273 275 277 279 281 283 285 287 289 291 292
226 226 226 225 225 225 225 226 227 228 229 230 233 235 236 237 237 236 234 234 235 237 238 239 240 241 241 241 241 240 238 236 235 234 234 234 235 236 237 238 240 242 244 246 249 251 254 256 257 257 257 257 260 264 267 268 270 272 274 276 278 279 282 284 286 288 290 291 292
225 225 225 224 224 224 224 224 225 226 228 229 231 233 235 236 236 234 233 232 234 236 237 238 239 239 240 240 240 239 237 235 233 233 233 234 235 236 237 238 240 242 245 247 250 253 256 257 257 256 256 258 261 265 267 269 271 274 276 277 279 281 283 285 287 288 290 291 292
224 224 224 223 223 222 222 223 224 225 227 228 230 232 234 235 234 232 231 231 233 235 236 237 238 238 239 239 239 238 236 233 232 232 233 234 236 236 237 238 241 243 245 248 251 254 256 257 256 256 257 259 263 266 268 270 273 275 277 279 281 283 285 286 287 288 289 290 291
223 223 222 222 221 221 221 222 223 224 225 227 229 231 233 233 231 229 229 230 232 234 235 236 237 238 238 238 237 236 234 232 231 232 234 236 237 237 237 238 240 243 247 250 253 254 255 255 255 256 259 263 266 268 270 272 274 276 278 281 283 284 285 286 287 288 289 291 292
222 221 221 220 219 219 220 221 222 223 224 226 228 230 231 230 228 227 228 230 232 233 234 235 236 236 237 236 235 233 232 231 231 233 235 237 237 237 236 238 241 244 248 251 253 253 253 252 253 256 261 266 269 272 273 275 276 278 280 282 284 285 285 286 287 289 290 291 292
221 220 219 218 218 218 219 219 220 221 222 224 226 227 227 226 225 225 227 229 231 232 233 234 234 235 235 234 232 230 230 230 231 233 235 235 235 235 236 239 242 246 249 251 251 251 250 249 251 255 261 267 271 273 275 276 278 280 282 284 284 285 285 287 288 289 291 292 293
218 217 216 216 216 217 217 217 218 218 220 222 223 224 223 222 222 224 226 228 230 231 231 231 231 231 231 230 228 227 228 230 231 233 234 234 234 236 238 240 244 247 249 250 249 247 247 249 251 256 262 267 271 274 275 277 280 282 283 284 284 285 286 287 289 290 291 292 293
214 213 213 213 214 215 215 214 214 214 216 219 220 220 219 219 221 223 226 227 228 228 228 228 228 228 228 227 226 226 227 229 231 233 234 234 236 237 239 242 244 247 248 248 247 247 248 251 255 260 265 269 272 275 277 279 281 283 284 285 285 286 287 288 290 291 291 292 292
208 208 209 210 210 210 210 210 210 212 214 215 216 215 215 217 221 223 225 226 225 225 226 226 226 226 225 225 225 225 226 228 231 233 235 236 238 239 241 243 246 247 247 247 248 250 254 257 261 265 268 271 274 276 279 281 283 284 285 285 286 287 288 289 290 291 291 292 292
203 204 205 206 205 205 206 207 208 210 211 211 211 212 214 218 221 222 222 222 223 223 224 225 225 224 224 224 225 225 226 228 231 234 236 237 239 241 243 245 247 247 247 249 253 257 261 264 266 269 271 274 276 279 281 282 283 284 285 286 287 288 289 289 290 291 291 291 292
198 199 200 201 201 202 204 205 206 207 207 207 209 212 215 217 219 219 219 219 221 221 222 222 222 222 223 224 225 226 228 229 232 234 236 237 239 242 244 246 247 247 249 253 257 262 265 268 269 271 274 276 279 281 282 283 284 285 285 286 287 288 289 290 290 291 291 292 293
194 195 195 197 198 200 201 202 203 203 204 206 209 211 213 214 215 215 216 217 219 219 219 219 219 221 222 224 225 226 228 231 233 234 235 237 240 242 244 245 246 248 252 256 261 265 268 270 271 274 276 279 281 282 283 283 284 285 286 287 288 289 290 290 291 291 292 294 295
191 191 192 194 195 197 198 199 200 201 203 205 207 209 210 211 212 213 214 215 216 216 216 216 218 220 222 223 224 225 228 231 233 234 235 238 239 241 242 244 246 250 255 259 264 267 270 272 274 276 278 280 281 282 283 284 285 286 287 288 288 289 290 290 291 293 295 296 297
189 189 190 191 192 193 195 196 198 200 202 203 205 206 207 208 209 210 211 211 211 212 213 215 217 220 221 222 223 225 227 229 232 234 236 237 238 240 242 246 250 255 260 263 267 270 273 275 277 279 280 281 282 283 284 285 286 287 288 288 289 289 290 292 293 295 296 297 297
189 189 190 190 191 192 194 196 198 200 201 202 203 204 205 205 205 206 206 207 208 210 212 214 216 218 220 221 223 225 227 230 232 234 235 237 239 242 246 251 256 261 265 268 271 273 275 277 279 280 281 281 282 283 285 286 287 288 288 289 289 291 292 294 296 297 297 297 297
188 189 189 190 191 192 194 196 197 198 200 200 200 200 201 201 201 202 202 204 206 209 211 213 214 216 218 221 223 226 229 231 232 234 236 238 242 247 252 257 262 266 269 272 274 276 278 279 280 281 281 282 283 285 286 287 288 288 289 290 291 293 294 296 296 297 297 296 297
184 185 186 188 189 191 192 194 194 195 196 197 197 197 197 197 198 199 201 203 204 206 208 210 212 215 218 221 225 227 230 232 234 237 240 244 248 254 259 264 268 271 274 275 277 278 279 280 280 281 282 284 285 286 287 288 288 289 290 292 294 295 296 296 296 296 296 297 297
178 180 182 184 186 187 188 189 190 191 192 193 193 194 194 195 196 197 198 199 200 202 205 209 212 216 220 224 227 229 231 233 236 241 246 251 256 262 267 271 273 275 276 277 277 278 278 279 280 282 284 286 287 287 288 288 289 291 292 294 295 295 296 296 296 296 297 297 298
173 177 179 180 181 183 184 186 187 189 190 190 191 191 191 192 192 192 193 195 197 201 205 210 215 219 223 225 226 228 230 234 239 245 252 259 264 269 272 274 275 275 275 275 276 277 278 280 282 284 286 287 287 288 289 290 291 292 294 294 295 295 296 296 296 297 298 298 299
175 178 179 179 180 182 183 185 187 188 188 187 187 187 187 186 185 186 189 193 198 202 207 213 219 222 224 224 224 225 229 235 243 251 259 264 268 271 272 273 273 273 273 274 276 277 280 282 284 285 286 287 288 289 291 292 293 293 294 294 295 295 296 297 297 298 298 299 299
175 176 177 178 180 181 183 183 184 185 184 182 182 182 182 181 182 184 189 193 198 202 207 213 220 223 224 224 225 229 234 242 250 257 262 266 268 269 270 271 272 273 274 276 278 280 282 284 285 286 287 288 290 291 292 293 293 294 294 295 296 296 297 298 298 299 299 299 300
170 173 175 177 179 180 180 180 180 179 178 177 178 178 179 180 183 186 190 194 196 198 201 207 213 218 222 226 231 237 244 251 257 262 265 267 267 269 270 272 274 276 278 279 281 283 284 285 286 287 289 291 292 293 294 294 294 294 295 296 297 297 298 299 299 299 300 300 300
169 173 177 180 182 182 182 180 179 177 177 177 176 177 178 180 183 187 191 194 197 200 203 207 212 218 225 233 241 249 255 260 263 266 267 268 269 270 272 275 278 280 281 282 283 285 286 287 289 290 292 293 294 294 295 295 295 296 296 297 298 298 299 299 300 300 300 301 301
167 169 171 175 178 180 181 181 181 181 181 181 179 179 179 180 183 189 194 199 204 209 214 219 224 231 239 247 253 259 263 265 266 267 268 270 271 273 275 277 279 281 283 284 286 288 290 291 292 292 293 294 295 295 296 296 297 297 298 298 299 299 300 300 300 301 301 302 302
159 157 155 156 158 159 161 165 170 174 177 179 180 180 181 184 189 195 201 207 212 218 224 230 238 245 252 257 260 263 264 266 267 268 271 273 275 277 278 280 282 284 286 288 290 291 292 292 293 293 294 295 296 296 297 297 298 298 299 299 300 300 301 301 301 302 302 302 303
143 142 142 143 143 141 140 142 146 154 162 167 172 176 181 187 193 199 205 212 218 224 230 236 243 250 255 258 260 262 265 267 270 273 275 277 279 281 282 284 286 288 290 291 292 293 293 293 293 294 295 296 297 297 298 299 299 300 300 300 301 301 301 301 302 302 302 303 303
134 135 137 140 141 140 138 138 141 146 152 158 165 172 180 187 195 202 209 216 222 228 233 238 244 249 254 258 262 265 269 272 276 279 281 282 284 286 287 288 289 290 291 292 293 293 294 294 295 295 296 297 297 298 299 299 300 300 301 301 301 301 302 302 302 302 303 303 303